Location: Unspecified
(0.0000°N, 0.0000°E)
Time: 19:40:05

Vanguard 2 Rocket - Pass Details

Date: 12 December 2017
Orbit: 554 x 3327 km, 32.9° (Epoch: 20 March)

Event Time Altitude Azimuth Distance (km) Brightness Sun altitude
Rises 05:33:47 0° 290° (WNW) 6,599 - -4.6°
Exits shadow 05:36:02 - 287° (WNW) 6,014 10.4 -4.1°
Reaches altitude 10° 05:39:13 10° 283° (WNW) 5,170 10.1 -3.3°
Maximum altitude 05:51:23 37° 222° (SW) 2,429 9.0 -0.5°
Drops below altitude 10° 05:58:46 10° 156° (SSE) 3,122 10.5 1.2°
Sets 06:01:14 0° 146° (SE) 3,797 11.2 1.7°
